RH
85 100 87 67 80 60 58 60 61 38 24 7 10 15 13 18 28 29 53 46 80 88 97 100 94 90 60 34 34 37 31 31 18 22 30 83 100 100 100 100 94 64 62 54
100 100 97 82 72 98 63 62 73 66 42 14 6 10 11 26 41 47 54 73 84 95 100 100 97 92 53 54 44 44 35 24 17 17 24 47 78 86 88 93 87 71 74 62
100 100 100 77 100 100 100 69 98 100 44 28 7 7 11 14 37 52 48 72 75 84 100 97 95 72 70 90 53 47 34 28 20 15 18 52 61 81 86 88 82 70 62 64
51 62 49 100 100 100 100 97 100 82 45 29 12 6 10 12 25 50 50 68 72 83 98 100 100 88 97 89 54 45 26 23 21 21 32 41 34 80 92 87 68 72 48 60
54 55 54 100 100 100 100 100 90 70 54 44 20 6 8 11 14 37 49 56 65 73 96 100 100 99 89 93 71 39 26 28 28 30 34 44 44 38 57 57 62 43 41 43
76 77 48 100 100 100 97 94 99 88 80 55 37 6 6 13 12 25 42 37 85 69 97 100 99 98 98 95 60 38 34 38 45 31 37 41 33 35 39 38 36 39 42 45
99 85 51 100 100 100 88 92 95 86 90 93 30 11 5 10 13 16 40 36 89 70 98 98 100 100 97 91 65 48 49 46 64 59 59 30 25 36 40 43 60 62 60 35
100 57 54 100 100 100 100 100 97 93 100 61 32 10 5 9 11 10 32 42 43 99 98 100 98 100 99 98 78 74 64 85 74 62 35 30 21 27 50 55 70 71 28 21
96 58 76 100 100 100 93 99 96 100 100 45 66 8 6 7 12 10 18 40 44 94 100 92 96 98 98 100 81 76 78 92 96 76 42 18 30 57 63 45 22 46 19 14
100 72 100 100 100 100 83 100 100 100 77 99 83 20 10 6 12 12 10 36 52 73 100 86 79 98 100 96 95 98 79 86 88 69 55 26 23 45 66 43 32 40 18 10
97 100 88 62 100 100 97 100 100 99 82 92 77 77 83 24 14 30 12 16 41 91 95 99 72 94 98 99 100 78 85 74 70 69 64 24 30 40 66 61 41 24 10 10
94 74 58 99 100 100 100 100 100 92 94 78 70 30 72 46 20 16 12 15 22 62 96 93 79 76 95 95 98 100 96 79 68 54 43 56 43 49 82 65 33 23 10 10
81 63 100 100 100 100 100 100 94 55 42 80 100 100 73 92 12 11 12 10 12 40 80 82 100 95 95 96 88 86 77 100 92 88 74 81 75 50 40 45 27 24 10 12
97 100 100 99 99 100 100 100 88 69 53 69 97 100 71 38 7 10 10 10 11 15 22 60 86 94 90 96 87 74 94 100 98 84 78 74 99 94 46 33 23 22 10 13
100 100 100 100 100 99 100 86 64 58 34 81 81 100 64 20 6 10 10 10 10 20 35 56 70 73 80 87 95 86 90 95 95 81 98 99 97 61 26 20 23 21 12 15
100 97 96 91 97 100 70 86 100 67 68 100 100 100 73 45 8 10 10 10 10 10 16 66 73 70 64 63 60 65 88 95 84 89 95 74 72 83 49 31 32 27 17 17
90 86 80 82 74 78 87 78 96 64 84 100 100 100 99 97 45 18 11 9 8 8 8 14 50 64 60 56 55 62 71 63 92 91 95 98 100 97 100 68 36 40 29 20
84 87 92 92 90 93 81 69 60 67 72 99 100 100 82 86 99 89 20 13 9 7 7 7 10 26 26 24 25 34 24 33 46 64 94 86 92 98 99 94 83 74 64 32
90 93 94 81 58 47 38 35 60 84 94 100 100 98 82 84 86 100 94 99 61 14 10 9 7 7 9 10 11 15 15 21 59 72 99 88 94 98 98 100 100 100 94 81
79 78 91 79 39 48 96 88 100 100 99 100 100 62 51 46 48 42 68 94 100 100 88 60 18 9 7 7 7 7 10 34 64 70 79 92 100 100 94 90 82 80 96 98
91 70 48 43 78 100 99 85 64 92 100 100 100 96 84 78 89 84 61 100 100 88 79 60 43 36 22 10 14 14 10 8 8 20 58 71 87 88 99 98 100 100 100 99
45 47 39 52 71 78 70 69 97 94 97 97 63 58 40 30 50 79 79 86 98 74 73 65 41 38 40 31 22 16 16 38 40 43 51 58 72 86 92 95 100 100 90 97
26 32 60 80 89 80 65 31 61 69 82 90 71 100 90 51 22 25 70 77 82 100 100 75 62 61 69 64 50 60 74 71 66 72 76 80 99 89 100 93 95 100 100 99
83 98 100 100 100 100 100 96 46 77 93 64 40 34 58 40 26 60 46 46 68 83 60 51 73 88 99 95 99 99 88 90 100 99 95 85 99 100 99 100 100 100 98 99
100 100 100 100 100 100 100 100 89 71 41 13 13 65 73 55 100 98 60 47 47 49 68 67 65 68 67 88 99 100 100 100 100 100 99 100 99 86 89 92 91 95 96 100
100 100 93 100 100 100 100 95 77 60 38 63 58 86 82 100 82 100 100 100 85 67 56 60 72 77 94 100 100 99 100 99 99 99 99 98 98 99 97 92 92 97 100 100
100 100 100 100 100 100 100 100 100 100 100 79 70 81 93 82 78 67 71 85 94 80 79 86 90 100 100 99 97 95 96 100 100 100 100 99 100 100 100 100 100 100 100 100
Wind_Speed
78 75 72 67 66 64 64 64 63 58 59 80 85 83 66 64 64 62 60 56 51 47 44 42 43 45 32 32 32 31 25 27 27 28 30 27 30 29 34 33 27 30 27 25
72 72 72 72 71 69 64 65 64 68 61 77 85 79 69 72 70 67 63 56 44 48 43 46 47 42 36 34 34 32 30 29 27 30 29 33 33 32 31 31 33 32 28 27
59 53 59 68 72 71 69 67 68 74 71 63 76 77 77 75 73 68 66 50 45 47 47 46 51 44 40 40 38 35 33 30 26 26 20 25 32 33 31 32 35 29 30 29
48 58 53 57 58 66 72 71 70 68 68 60 65 79 76 74 77 69 68 52 49 47 44 45 57 48 42 40 36 35 36 32 27 20 22 27 29 32 33 33 31 32 29 30
53 47 52 54 59 64 67 71 66 66 62 56 65 76 81 81 76 68 64 54 46 43 45 48 55 51 48 42 36 36 38 31 26 21 21 23 26 29 32 31 32 32 30 30
53 48 58 55 57 65 65 61 60 61 62 64 61 77 77 79 75 68 61 50 43 41 39 38 46 42 43 40 38 37 38 32 26 22 21 23 31 25 27 28 27 24 25 24
56 50 66 56 60 62 54 55 54 54 61 62 48 69 76 79 75 66 60 54 48 45 43 39 43 44 47 42 39 40 38 31 29 26 24 29 19 20 25 27 24 24 26 26
53 52 70 58 57 55 49 55 54 51 52 51 50 72 77 78 77 68 63 56 47 44 43 37 47 39 48 45 43 42 38 35 32 31 28 23 22 19 23 22 22 24 21 26
48 58 65 65 57 49 49 54 51 44 46 41 46 73 76 77 75 66 60 59 50 44 48 40 51 44 48 48 47 41 40 36 35 32 29 26 17 15 18 22 17 16 23 26
51 64 66 51 45 44 50 50 47 44 45 31 44 70 79 75 71 64 59 59 50 47 54 48 49 55 47 50 46 42 39 38 38 30 31 22 18 21 19 23 10 24 23 25
49 68 60 61 51 45 47 44 46 42 46 34 44 53 52 69 69 62 60 58 49 50 50 54 48 58 51 49 47 43 38 35 34 32 32 22 16 19 22 18 22 25 24 24
47 60 62 56 46 40 41 41 43 40 42 37 47 63 47 58 64 62 59 52 48 50 53 51 51 49 54 55 47 47 40 37 37 32 27 21 22 25 26 23 24 25 24 23
49 65 55 50 44 37 38 38 34 32 39 41 37 31 40 45 60 61 58 52 49 49 46 42 41 50 49 49 50 41 39 34 30 27 24 19 20 24 26 27 27 26 23 21
54 48 43 44 36 38 37 34 28 25 30 49 42 24 35 51 60 55 52 50 47 50 50 46 42 43 46 50 44 43 42 33 34 28 23 21 21 25 29 31 29 25 25 22
47 42 40 36 39 37 33 28 21 22 28 43 34 20 21 42 54 51 49 48 48 47 47 48 43 39 38 42 42 42 44 38 34 26 21 28 23 27 31 31 29 27 27 26
41 38 36 37 35 32 29 28 28 21 47 46 37 28 17 16 49 45 45 45 45 46 46 42 41 38 37 37 36 31 37 39 39 34 29 30 29 31 32 33 31 31 30 31
36 37 35 32 29 28 26 22 25 21 54 44 35 33 31 22 22 35 43 41 41 42 44 45 42 41 37 34 31 26 30 35 40 38 38 34 28 30 33 38 36 35 36 36
33 30 28 27 26 24 23 26 29 40 46 48 43 46 45 39 30 25 39 36 36 40 41 40 41 39 39 34 28 30 31 30 39 39 35 35 35 33 31 35 37 40 41 40
30 28 25 21 20 20 24 25 45 52 53 52 36 44 42 41 24 30 33 23 34 38 39 37 36 36 36 33 29 30 31 33 34 37 37 41 33 32 29 32 38 44 44 45
28 25 21 17 13 13 51 55 58 54 40 40 42 46 41 37 27 31 35 23 16 16 19 23 35 32 32 33 28 30 34 32 31 35 38 37 39 40 38 38 41 40 45 51
23 21 19 18 31 47 45 46 51 41 49 51 48 45 41 37 34 31 34 18 21 24 19 21 21 23 31 32 31 27 31 36 36 36 38 40 42 42 39 40 44 48 50 49
25 23 22 27 32 38 38 46 48 48 39 37 32 26 24 29 29 26 23 19 18 18 16 19 19 20 25 31 32 32 32 32 36 38 39 42 43 45 47 46 50 52 48 48
25 28 36 35 37 36 31 36 44 43 36 32 33 26 21 18 29 29 26 19 16 12 12 15 21 25 24 25 29 28 30 33 35 37 39 39 42 42 41 43 40 43 45 40
40 31 32 31 30 28 27 30 36 41 40 34 30 26 20 16 21 22 22 25 21 17 21 20 12 11 18 26 27 27 31 34 35 41 39 39 33 36 31 36 34 33 44 46
30 23 13 8 8 9 19 27 31 28 28 30 29 24 20 19 15 19 22 24 25 26 24 23 23 24 23 20 26 28 28 35 40 37 38 42 38 38 37 41 44 44 43 42
16 20 25 26 35 31 30 30 33 30 27 22 30 20 12 24 23 13 16 17 14 18 21 24 24 23 27 28 25 25 28 33 33 29 30 31 33 34 36 38 40 43 46 49
26 28 26 30 31 30 28 26 24 27 22 22 21 17 15 17 20 18 21 23 22 21 20 22 24 28 32 28 26 22 20 21 26 29 29 31 33 37 41 43 46 48 50 52
Wind_Direction
258 252 250 253 248 241 240 238 237 231 227 221 225 223 215 213 210 213 217 220 218 222 227 230 231 217 205 211 213 220 226 237 236 234 231 226 225 232 236 241 239 240 252 255
257 252 247 245 242 233 237 237 233 229 230 221 223 224 214 216 210 213 215 218 215 218 218 220 223 213 198 203 213 215 222 227 230 231 232 227 228 233 235 236 243 252 258 262
239 229 232 234 227 225 228 229 228 228 226 226 222 222 217 216 215 210 218 213 212 215 218 220 215 205 201 202 210 214 218 224 231 236 242 239 236 236 238 240 247 258 258 263
228 223 231 222 220 222 224 222 226 229 225 227 225 219 219 217 220 213 215 205 206 214 217 219 215 203 203 205 213 214 218 221 226 225 222 232 234 236 240 244 251 253 254 257
224 225 227 219 209 217 220 219 222 226 223 225 222 215 214 217 220 219 215 204 204 211 213 210 205 199 200 200 211 212 218 219 218 215 221 230 240 238 237 237 245 259 269 265
222 220 211 205 212 212 216 213 218 223 223 223 220 214 214 219 219 217 217 210 208 209 211 199 203 206 202 203 207 210 219 216 216 216 223 233 239 235 240 246 253 258 253 266
216 214 200 198 207 212 213 212 216 221 222 225 227 212 212 216 221 218 216 208 204 200 215 202 199 208 203 206 206 209 216 217 218 221 225 230 241 232 235 245 250 250 254 261
204 203 200 194 201 206 211 208 214 217 220 223 223 206 208 214 218 218 218 214 204 199 213 206 201 200 202 207 207 211 218 219 223 230 235 240 236 222 240 245 245 253 270 271
198 193 190 185 198 204 206 207 213 210 214 227 216 204 208 212 217 216 216 220 206 202 205 206 206 203 205 209 214 213 216 219 224 231 239 238 238 240 243 238 246 266 259 274
185 182 184 185 186 199 204 207 208 201 207 219 209 204 208 210 215 214 213 218 207 208 205 201 206 210 208 211 215 215 216 220 228 236 244 251 246 241 243 240 247 261 270 274
176 173 176 183 187 195 203 204 203 203 209 216 201 199 208 210 212 210 209 213 209 209 209 209 203 210 215 210 213 218 219 225 231 237 246 250 262 244 242 257 256 264 272 276
174 175 178 178 178 192 198 195 199 205 212 205 198 205 203 213 210 213 209 209 207 213 214 212 212 211 214 215 214 213 214 228 232 233 248 252 250 241 245 258 262 267 272 275
158 165 167 167 179 185 182 189 194 204 207 189 182 184 207 209 212 211 209 208 207 214 220 225 225 221 221 222 221 224 217 224 234 230 234 250 257 254 252 249 255 262 268 268
155 155 165 171 171 174 179 187 189 191 196 185 180 184 214 215 212 209 208 208 209 214 220 226 225 223 222 224 228 219 223 219 234 236 239 257 259 257 251 249 257 267 268 263
151 155 159 163 166 173 175 178 180 189 185 174 173 176 211 218 210 209 208 208 209 213 221 227 227 227 226 225 228 220 221 226 234 238 247 252 256 252 252 252 256 260 262 260
160 161 162 163 166 171 174 183 187 189 158 155 148 153 148 187 213 208 209 209 211 214 222 229 233 232 229 228 228 225 226 229 235 239 248 255 258 259 260 259 253 255 256 256
157 160 165 168 174 183 192 187 187 181 169 152 144 147 140 146 191 210 209 210 211 216 222 228 232 238 238 232 228 227 230 236 238 242 246 252 262 262 265 257 255 257 257 255
156 162 169 178 184 185 191 190 182 170 172 167 159 148 149 151 174 191 208 211 216 222 228 229 233 238 245 247 241 238 241 245 243 244 245 256 262 261 272 256 260 261 260 260
151 154 153 157 173 191 205 199 165 155 158 168 166 170 163 160 162 167 161 194 221 227 234 236 236 238 242 248 248 246 244 243 243 244 248 253 259 264 264 266 263 263 264 263
132 136 146 149 165 171 138 150 158 162 160 151 163 186 193 197 198 192 186 197 183 212 217 230 240 244 246 246 248 248 243 243 246 247 247 253 252 266 270 262 262 263 264 264
122 131 133 126 133 146 147 148 165 170 145 149 148 151 158 167 178 181 187 196 216 228 231 242 245 244 244 244 247 251 247 248 249 254 257 258 261 263 265 267 276 274 280 276
119 119 110 123 130 152 151 154 148 145 141 158 169 182 196 204 191 181 190 208 224 227 220 235 243 250 246 243 248 251 254 256 253 251 255 260 262 267 268 266 274 277 278 276
121 134 139 137 130 135 136 157 165 155 148 146 145 147 157 170 194 202 204 194 220 227 242 266 261 253 257 262 257 253 254 256 256 259 260 264 266 263 258 263 277 260 255 267
120 132 136 135 137 115 99 110 145 150 157 154 159 169 173 175 180 192 214 228 233 260 260 260 297 288 263 257 256 267 261 263 263 260 264 259 271 254 263 263 254 249 258 263
110 95 88 114 108 104 111 137 140 142 151 159 161 156 175 178 181 212 220 232 234 244 263 274 280 281 284 280 273 263 252 250 253 256 254 257 260 262 261 260 262 264 268 271
105 116 127 110 111 115 121 116 124 120 135 148 167 176 180 186 197 205 219 215 231 245 254 261 265 271 267 261 261 260 255 252 254 257 258 259 261 262 263 265 268 270 268 267
97 106 113 109 110 111 119 131 142 151 164 172 189 199 194 207 212 227 240 245 245 243 249 254 261 261 265 265 267 257 251 259 261 262 267 269 268 269 266 263 260 262 266 271